パンスターズ彗星

C/2017 A1 ( PanSTARRS )

English version
Home page
Updated on May 24, 2020

---------------------------------------------------------------------

・ プロフィール

発見日 2017年1月2日
発見光度 19.6等
発見者 Pan-STARRS 1 telescope (Haleakala)

・ 写真集

・ 軌道要素

Epoch 2017 May 7.0 TT = JDT 2457880.5                                           
T 2017 May 17.13502 TT                                  Rudenko                 
q   2.2903428            (2000.0)            P               Q                  
z  +0.0124622      Peri.    2.04810     -0.53547265     -0.53414332             
 +/-0.0000070      Node   121.06707     +0.76359989     -0.63712504             
e   0.9714573      Incl.   49.79445     +0.36081055     +0.55566410             
From 202 observations 2016 Sept. 27-2017 Nov. 22, mean residual 0".8.           

・ 光度変化

        m1 = 12.0 + 5 logΔ + 10.0 log r

---------------------------------------------------------------------

軌道要素はM.P.E.C. 2020-K117に掲載されたものです。
光度グラフはComet for Windowsで作成したものです。

---------------------------------------------------------------------

Copyright(C) Seiichi Yoshida (comet@aerith.net). All rights reserved.